STARLINK-33966, 64203

Orbit data source: Space-Track

STARLINK-33966, 64203 is a payload satellite owned by SpaceX/Seattle (US) in LEO that was launched on Sat, 31 May 2025 UTC via an FALCON 9 launch vehicle from the Air Force Western Test Range (AFWTR). Payload-class satellites include a variety of spacecraft equipped with specific instruments for various scientific and technological missions. These include communications satellites like Starlink; space stations such as the ISS; scientific satellites like the Hubble; Earth observation satellites from companies like Planet Labs, Umbra, and HawkEye 360; GPS; miniature CubeSats for education and research; and military/defense satellites.

Loading next visibility...
Identifier
64203, 2025-117A
Orbit
LEO
Last TLE update
10 hours ago
Origin
Manufacturer
SpaceX/Seattle
Mission
Operational Commercial Communications
Bus & Motor
STARLINK V2MO, Unknown motor
Mass
575 kg wet, ~530 kg dry
Launch date (UTC)
2025-05-31 (2 months ago)
Launch vehicle
FALCON 9
Launch site
Air Force Western Test Range (AFWTR)
Object type
Payload
Rocket body
Debris
Shape & HBR
Box + 1 Pan, 14.5 m
Radar Cross Section
41.120 m², Large (>1 m²)

Expand to show TLE details & history

TLE from 10 hours ago
0 STARLINK-33966
1 64203U 25117A   25199.31259663  .00042695  00000-0  10714-2 0  9993
2 64203  53.1603  50.9601 0001313  88.3393 271.7762 15.39619326  7574
Epoch: 2025-07-18T07:30Z
TLE epoch observation values (Epoch: 2025-07-18T07:30:08.348Z)
Latitude
-0.00006°
Longitude
2.05942°
Altitude
448.11 km
Speed
7.645 km/s
True Right ascension
03h 23m 50s
True Declination
0° 00' 00"
Sunlit
Object was in daylight at epoch
Visualization orbit readout
Latitude
-7.95119°
Longitude
-173.96459°
Altitude
449.56 km
Speed
7.643 km/s
Apparent Right ascension
16h 49m 21s
Apparent Declination
-24° 39' 14"
Sunlit
Object is in full shadow
Visualization observer readout
Local Sidereal Time
06:26:54
Azimuth
60.627° ENE
Elevation
-64.494°
Doppler factor
1
Orbital elements
Apogee altitude
448.388 km
Perigee altitude
446.595 km
Semi-major axis
6,825.629 km
Eccentricity
0.00013
Inclination
53.1603°
RAAN
50.9601°
Arg. of periapsis
88.3393°
True anomaly
271.76116°
Mean anomaly
271.7762°
Eccentric anomaly
271.76868°
Mean motion
3.84883 °/min
Orbital period
93.53 mins
BSTAR
0.0010714
Loading maneuver chart data...
Loading SW <> Apogee altitude chart data...
Loading historical data...
Loading historical data...
Loading historical data...
Loading historical data...
Loading historical data...
Loading historical data...
Loading historical data...
|